,,Stat6,,Stat2,,Stat8,,Stat9,,Stat10,,Wind1,,Wind1,
time,status,PA1M_AVG,status,PR1M_SUM,status,RH1M_AVG,status,SR1M_AVG,status,TA1M_AVG,status,W1dAve1m,status,W1sAve1m,
2007-10-12, 07:00:03,VALID,917.437,VALID,0,VALID,100,VALID,29.6655,VALID,19.7824,VALID,192,VALID,1.28982,
2007-10-12, 07:01:01,VALID,917.446,VALID,0,VALID,100,VALID,23.943,VALID,19.7792,VALID,192,VALID,0.929514,
2007-10-12, 07:02:01,VALID,917.473,VALID,0,VALID,100,VALID,23.5015,VALID,19.7789,VALID,179,VALID,1.12426,
2007-10-12, 07:03:01,VALID,917.485,VALID,0,VALID,100,VALID,12.6337,VALID,19.7956,VALID,146,VALID,0.900799,
2007-10-12, 07:04:01,VALID,917.512,VALID,0,VALID,100,VALID,19.0695,VALID,19.8116,VALID,184,VALID,0.909375,
2007-10-12, 07:05:01,VALID,917.539,VALID,0,VALID,100,VALID,26.3373,VALID,19.8016,VALID,163,VALID,1.34162,
2007-10-12, 07:06:00,VALID,917.558,VALID,0,VALID,100,VALID,29.7165,VALID,19.8181,VALID,146,VALID,1.1032,
2007-10-12, 07:07:00,VALID,917.575,VALID,0,VALID,100,VALID,32.2636,VALID,19.8211,VALID,157,VALID,1.16426,
2007-10-12, 07:08:00,VALID,917.593,VALID,0,VALID,100,VALID,34.6239,VALID,19.8411,VALID,180,VALID,0.866642,
2007-10-12, 07:09:00,VALID,917.615,VALID,0,VALID,100,VALID,33.2824,VALID,19.8441,VALID,176,VALID,1.49638,
2007-10-12, 07:10:00,VALID,917.639,VALID,0,VALID,100,VALID,33.673,VALID,19.8635,VALID,176,VALID,1.23379,
2007-10-12, 07:11:00,VALID,917.649,VALID,0,VALID,100,VALID,74.1892,VALID,19.883,VALID,166,VALID,1.91927,
2007-10-12, 07:12:00,VALID,917.681,VALID,0,VALID,100,VALID,73.3742,VALID,19.8503,VALID,159,VALID,1.81364,
2007-10-12, 07:13:00,VALID,917.685,VALID,0,VALID,100,VALID,79.1477,VALID,19.8957,VALID,197,VALID,1.69624,
2007-10-12, 07:14:00,VALID,917.704,VALID,0,VALID,100,VALID,81.6948,VALID,19.9222,VALID,182,VALID,1.64729,
2007-10-12, 07:15:00,VALID,917.706,VALID,0,VALID,100,VALID,83.4778,VALID,19.9162,VALID,175,VALID,2.13602,
2007-10-12, 07:16:00,VALID,917.725,VALID,0,VALID,100,VALID,84.4627,VALID,19.9449,VALID,181,VALID,1.42242,
2007-10-12, 07:17:00,VALID,917.738,VALID,0,VALID,100,VALID,78.2816,VALID,19.9743,VALID,181,VALID,1.60435,
2007-10-12, 07:18:00,VALID,917.732,VALID,0,VALID,100,VALID,77.4496,VALID,19.9908,VALID,186,VALID,1.54111,
2007-10-12, 07:19:00,VALID,917.744,VALID,0,VALID,100,VALID,24.0449,VALID,19.9933,VALID,196,VALID,2.02827,
2007-10-12, 07:20:00,VALID,917.749,VALID,0,VALID,100,VALID,25.3863,VALID,19.9801,VALID,186,VALID,1.40072,
2007-10-12, 07:21:00,VALID,917.753,VALID,0,VALID,100,VALID,22.8902,VALID,20.0095,VALID,194,VALID,1.46977,
2007-10-12, 07:22:00,VALID,917.767,VALID,0,VALID,100,VALID,20.2242,VALID,20.0125,VALID,206,VALID,1.52841,
2007-10-12, 07:23:00,VALID,917.775,VALID,0,VALID,100,VALID,26.4222,VALID,20.0188,VALID,156,VALID,1.69922,
2007-10-12, 07:24:00,VALID,917.805,VALID,0,VALID,100,VALID,40.0748,VALID,20.0252,VALID,190,VALID,0.899528,
2007-10-12, 07:25:00,VALID,917.832,VALID,0,VALID,100,VALID,30.1749,VALID,20.0547,VALID,176,VALID,1.58133,
2007-10-12, 07:26:00,VALID,917.874,VALID,0,VALID,100,VALID,90.2871,VALID,20.0644,VALID,214,VALID,0.904167,
2007-10-12, 07:27:00,VALID,917.904,VALID,0,VALID,100,VALID,92.9361,VALID,20.0839,VALID,196,VALID,1.51971,
2007-10-12, 07:28:00,VALID,917.96,VALID,0,VALID,100,VALID,95.3134,VALID,20.0742,VALID,187,VALID,1.45219,
2007-10-12, 07:29:00,VALID,917.973,VALID,0,VALID,99.999,VALID,96.7568,VALID,20.0904,VALID,184,VALID,1.78005,
2007-10-12, 07:30:00,VALID,917.996,VALID,0,VALID,99.9916,VALID,96.4172,VALID,20.0936,VALID,166,VALID,1.41276,
2007-10-12, 07:31:00,VALID,917.99,VALID,0,VALID,100,VALID,97.5719,VALID,20.1004,VALID,182,VALID,1.79759,
2007-10-12, 07:32:00,VALID,917.993,VALID,0,VALID,99.9779,VALID,98.0643,VALID,20.1034,VALID,192,VALID,1.57322,
2007-10-12, 07:33:00,VALID,918.024,VALID,0,VALID,100,VALID,99.4228,VALID,20.1326,VALID,206,VALID,1.44904,
2007-10-12, 07:34:00,VALID,918.044,VALID,0,VALID,99.983,VALID,99.3039,VALID,20.1291,VALID,205,VALID,2.63681,
2007-10-12, 07:35:00,VALID,918.056,VALID,0,VALID,100,VALID,100.764,VALID,20.1261,VALID,195,VALID,1.97582,
2007-10-12, 07:36:00,VALID,918.063,VALID,0,VALID,100,VALID,100.204,VALID,20.1323,VALID,190,VALID,2.2724,
2007-10-12, 07:37:00,VALID,918.081,VALID,0,VALID,99.9977,VALID,99.8982,VALID,20.1458,VALID,193,VALID,2.28525,
2007-10-12, 07:38:00,VALID,918.088,VALID,0,VALID,99.9504,VALID,98.9303,VALID,20.1456,VALID,208,VALID,2.31845,
2007-10-12, 07:39:00,VALID,918.118,VALID,0,VALID,100,VALID,99.7624,VALID,20.1715,VALID,215,VALID,1.12645,
2007-10-12, 07:40:00,VALID,918.134,VALID,0,VALID,100,VALID,100.594,VALID,20.2142,VALID,197,VALID,1.96602,
2007-10-12, 07:41:00,VALID,918.168,VALID,0,VALID,99.9939,VALID,100.493,VALID,20.204,VALID,206,VALID,1.89025,
2007-10-12, 07:42:00,VALID,918.179,VALID,0,VALID,100,VALID,100.459,VALID,20.2202,VALID,211,VALID,1.00874,
2007-10-12, 07:43:00,VALID,918.202,VALID,0,VALID,99.999,VALID,21.26,VALID,20.2464,VALID,202,VALID,2.13039,
2007-10-12, 07:44:00,VALID,918.223,VALID,0,VALID,99.9941,VALID,23.043,VALID,20.2572,VALID,196,VALID,2.0441,
2007-10-12, 07:45:00,VALID,918.231,VALID,0,VALID,99.9568,VALID,27.2033,VALID,20.2402,VALID,189,VALID,1.61998,
2007-10-12, 07:46:00,VALID,918.252,VALID,0,VALID,99.9301,VALID,90.5418,VALID,20.2426,VALID,189,VALID,2.05887,
2007-10-12, 07:47:00,VALID,918.242,VALID,0,VALID,99.6887,VALID,102.276,VALID,20.2367,VALID,175,VALID,2.60774,
2007-10-12, 07:48:00,VALID,918.278,VALID,0,VALID,99.6086,VALID,103.159,VALID,20.2461,VALID,185,VALID,2.69123,
2007-10-12, 07:49:00,VALID,918.291,VALID,0,VALID,99.5234,VALID,105.179,VALID,20.2556,VALID,194,VALID,1.8005,
2007-10-12, 07:50:00,VALID,918.294,VALID,0,VALID,99.353,VALID,105.757,VALID,20.2783,VALID,172,VALID,2.60175,
2007-10-12, 07:51:00,VALID,918.301,VALID,0,VALID,99.2462,VALID,106.487,VALID,20.2918,VALID,186,VALID,2.44885,
2007-10-12, 07:52:00,VALID,918.32,VALID,0,VALID,99.2144,VALID,107.574,VALID,20.32,VALID,187,VALID,2.07049,
2007-10-12, 07:53:00,VALID,918.314,VALID,0,VALID,99.0478,VALID,108.711,VALID,20.3387,VALID,189,VALID,2.03868,
2007-10-12, 07:54:00,VALID,918.279,VALID,0,VALID,98.9054,VALID,110.053,VALID,20.3519,VALID,194,VALID,2.49202,
2007-10-12, 07:55:00,VALID,918.298,VALID,0,VALID,98.7846,VALID,111.36,VALID,20.3712,VALID,194,VALID,2.02083,
2007-10-12, 07:56:00,VALID,918.3,VALID,0,VALID,98.8584,VALID,112.668,VALID,20.4004,VALID,174,VALID,1.8418,
2007-10-12, 07:57:00,VALID,918.308,VALID,0,VALID,98.5926,VALID,113.958,VALID,20.4233,VALID,182,VALID,2.15749,
2007-10-12, 07:58:00,VALID,918.306,VALID,0,VALID,98.4909,VALID,115.504,VALID,20.459,VALID,184,VALID,1.96147,
2007-10-12, 07:59:00,VALID,918.308,VALID,0,VALID,98.0038,VALID,117.253,VALID,20.4523,VALID,169,VALID,2.18197,
2007-10-12, 08:00:00,VALID,918.324,VALID,0,VALID,98.2213,VALID,119.511,VALID,20.5209,VALID,172,VALID,1.44531,
2007-10-12, 08:01:00,VALID,918.325,VALID,0,VALID,97.864,VALID,122.313,VALID,20.5499,VALID,173,VALID,1.76417,
2007-10-12, 08:02:00,VALID,918.318,VALID,0,VALID,97.7126,VALID,125.726,VALID,20.5823,VALID,194,VALID,1.83501,
2007-10-12, 08:03:00,VALID,918.318,VALID,0,VALID,97.5995,VALID,129.649,VALID,20.6245,VALID,197,VALID,1.61504,
2007-10-12, 08:04:00,VALID,918.306,VALID,0,VALID,97.6173,VALID,133.979,VALID,20.6729,VALID,195,VALID,1.64916,
2007-10-12, 08:05:00,VALID,918.31,VALID,0,VALID,97.5308,VALID,138.598,VALID,20.7154,VALID,195,VALID,1.23366,
2007-10-12, 08:06:00,VALID,918.323,VALID,0,VALID,97.4558,VALID,143.437,VALID,20.7511,VALID,192,VALID,1.90987,
2007-10-12, 08:07:00,VALID,918.316,VALID,0,VALID,97.368,VALID,148.837,VALID,20.7819,VALID,195,VALID,1.87072,
2007-10-12, 08:08:00,VALID,918.317,VALID,0,VALID,97.2943,VALID,154.95,VALID,20.8243,VALID,192,VALID,1.8022,
2007-10-12, 08:09:00,VALID,918.333,VALID,0,VALID,97.2154,VALID,161.522,VALID,20.8343,VALID,193,VALID,1.96354,
2007-10-12, 08:10:00,VALID,918.321,VALID,0,VALID,96.9777,VALID,167.906,VALID,20.827,VALID,184,VALID,1.68826,
2007-10-12, 08:11:00,VALID,918.321,VALID,0,VALID,96.9522,VALID,173.901,VALID,20.8476,VALID,184,VALID,1.48679,
2007-10-12, 08:12:00,VALID,918.345,VALID,0,VALID,96.7907,VALID,178.757,VALID,20.8627,VALID,197,VALID,1.81055,
2007-10-12, 08:13:00,VALID,918.367,VALID,0,VALID,96.7081,VALID,182.136,VALID,20.8984,VALID,184,VALID,1.80694,
2007-10-12, 08:14:00,VALID,918.382,VALID,0,VALID,96.6089,VALID,185.397,VALID,20.9639,VALID,182,VALID,1.31499,
2007-10-12, 08:15:00,VALID,918.4,VALID,0,VALID,96.7526,VALID,188.691,VALID,21.0055,VALID,176,VALID,0.93564,
2007-10-12, 08:16:00,VALID,918.394,VALID,0,VALID,96.0125,VALID,192.444,VALID,21.0158,VALID,194,VALID,1.60789,
2007-10-12, 08:17:00,VALID,918.411,VALID,0,VALID,96.2083,VALID,196.876,VALID,21.055,VALID,221,VALID,1.28252,
2007-10-12, 08:18:00,VALID,918.396,VALID,0,VALID,96.455,VALID,203.566,VALID,21.1134,VALID,199,VALID,1.25136,
2007-10-12, 08:19:00,VALID,918.387,VALID,0,VALID,96.2071,VALID,212.77,VALID,21.1483,VALID,220,VALID,1.47374,
2007-10-12, 08:20:00,VALID,918.392,VALID,0,VALID,96.3368,VALID,218.577,VALID,21.2206,VALID,209,VALID,1.68441,
2007-10-12, 08:21:00,VALID,918.392,VALID,0,VALID,96.2427,VALID,221.158,VALID,21.2836,VALID,206,VALID,1.31455,
2007-10-12, 08:22:00,VALID,918.389,VALID,0,VALID,95.996,VALID,224.792,VALID,21.3434,VALID,174,VALID,1.3564,
2007-10-12, 08:23:00,VALID,918.38,VALID,0,VALID,95.5115,VALID,230.073,VALID,21.3961,VALID,198,VALID,1.57831,
2007-10-12, 08:24:00,VALID,918.411,VALID,0,VALID,94.6748,VALID,226.473,VALID,21.438,VALID,183,VALID,2.71968,
2007-10-12, 08:25:00,VALID,918.413,VALID,0,VALID,93.964,VALID,215.572,VALID,21.444,VALID,177,VALID,2.68136,
2007-10-12, 08:26:00,VALID,918.431,VALID,0,VALID,93.2137,VALID,215.86,VALID,21.4892,VALID,195,VALID,2.38881,
2007-10-12, 08:27:00,VALID,918.432,VALID,0,VALID,92.9072,VALID,220.921,VALID,21.5316,VALID,206,VALID,2.12482,
2007-10-12, 08:28:00,VALID,918.438,VALID,0,VALID,93.2531,VALID,229.173,VALID,21.626,VALID,187,VALID,1.881,
2007-10-12, 08:29:00,VALID,918.461,VALID,0,VALID,93.1043,VALID,246.884,VALID,21.675,VALID,186,VALID,2.259,
2007-10-12, 08:30:00,VALID,918.453,VALID,0,VALID,92.8144,VALID,294.549,VALID,21.704,VALID,198,VALID,2.00521,
2007-10-12, 08:31:00,VALID,918.431,VALID,0,VALID,92.6389,VALID,316.947,VALID,21.7665,VALID,208,VALID,1.55178,
2007-10-12, 08:32:00,VALID,918.434,VALID,0,VALID,92.6237,VALID,318.357,VALID,21.8598,VALID,174,VALID,1.45912,
2007-10-12, 08:33:00,VALID,918.416,VALID,0,VALID,91.4284,VALID,334.947,VALID,21.9542,VALID,209,VALID,2.63072,
2007-10-12, 08:34:00,VALID,918.415,VALID,0,VALID,90.5408,VALID,352.93,VALID,21.9569,VALID,187,VALID,2.15078,
2007-10-12, 08:35:00,VALID,918.4,VALID,0,VALID,91.2491,VALID,357.192,VALID,22.0059,VALID,206,VALID,1.62919,
2007-10-12, 08:36:00,VALID,918.402,VALID,0,VALID,91.5148,VALID,361.997,VALID,22.1033,VALID,206,VALID,2.22053,
2007-10-12, 08:37:00,VALID,918.424,VALID,0,VALID,91.5237,VALID,362.524,VALID,22.1883,VALID,207,VALID,1.42769,
2007-10-12, 08:38:00,VALID,918.422,VALID,0,VALID,91.0952,VALID,373.799,VALID,22.2169,VALID,173,VALID,1.58379,
2007-10-12, 08:39:00,VALID,918.443,VALID,0,VALID,91.6852,VALID,383.852,VALID,22.2892,VALID,197,VALID,1.33799,
2007-10-12, 08:40:00,VALID,918.471,VALID,0,VALID,90.6082,VALID,391.799,VALID,22.3081,VALID,184,VALID,2.36795,
2007-10-12, 08:41:00,VALID,918.48,VALID,0,VALID,90.8155,VALID,395.263,VALID,22.3052,VALID,215,VALID,2.21758,
2007-10-12, 08:42:00,VALID,918.484,VALID,0,VALID,90.9007,VALID,397.233,VALID,22.3565,VALID,209,VALID,2.0142,
2007-10-12, 08:43:00,VALID,918.499,VALID,0,VALID,90.7468,VALID,405.332,VALID,22.4321,VALID,208,VALID,1.83132,
2007-10-12, 08:44:00,VALID,918.5,VALID,0,VALID,90.4327,VALID,422.415,VALID,22.5135,VALID,206,VALID,1.8125,
2007-10-12, 08:45:00,VALID,918.501,VALID,0,VALID,90.2674,VALID,436.017,VALID,22.5714,VALID,199,VALID,2.10047,
2007-10-12, 08:46:00,VALID,918.52,VALID,0,VALID,90.331,VALID,447.734,VALID,22.5879,VALID,224,VALID,1.9651,
2007-10-12, 08:47:00,VALID,918.515,VALID,0,VALID,90.7264,VALID,460.673,VALID,22.6142,VALID,197,VALID,1.12959,
2007-10-12, 08:48:00,VALID,918.534,VALID,0,VALID,90.7493,VALID,468.195,VALID,22.7406,VALID,204,VALID,1.46914,
2007-10-12, 08:49:00,VALID,918.545,VALID,0,VALID,90.2712,VALID,465.886,VALID,22.861,VALID,193,VALID,1.69531,
2007-10-12, 08:50:00,VALID,918.555,VALID,0,VALID,89.2374,VALID,463.135,VALID,22.9133,VALID,171,VALID,1.93657,
2007-10-12, 08:51:00,VALID,918.565,VALID,0,VALID,89.732,VALID,454.798,VALID,22.8773,VALID,192,VALID,1.54778,
2007-10-12, 08:52:00,VALID,918.577,VALID,0,VALID,89.6227,VALID,440.109,VALID,22.9558,VALID,186,VALID,1.99867,
2007-10-12, 08:53:00,VALID,918.566,VALID,0,VALID,89.0975,VALID,423.672,VALID,22.9815,VALID,205,VALID,2.45078,
2007-10-12, 08:54:00,VALID,918.556,VALID,0,VALID,88.7707,VALID,423.842,VALID,22.9682,VALID,220,VALID,2.02493,
2007-10-12, 08:55:00,VALID,918.549,VALID,0,VALID,88.9284,VALID,427.272,VALID,22.962,VALID,214,VALID,2.32813,
2007-10-12, 08:56:00,VALID,918.564,VALID,0,VALID,89.2972,VALID,443.607,VALID,22.9779,VALID,205,VALID,2.29563,
2007-10-12, 08:57:00,VALID,918.565,VALID,0,VALID,88.903,VALID,438.954,VALID,23.0012,VALID,188,VALID,1.7638,
2007-10-12, 08:58:00,VALID,918.569,VALID,0,VALID,89.0708,VALID,433.724,VALID,23.0423,VALID,189,VALID,2.39948,
2007-10-12, 08:59:00,VALID,918.602,VALID,0,VALID,89.3925,VALID,432.57,VALID,23.1158,VALID,211,VALID,1.78013,
2007-10-12, 09:00:00,VALID,918.623,VALID,0,VALID,88.4452,VALID,422.347,VALID,23.1521,VALID,197,VALID,1.59512,
2007-10-12, 09:01:00,VALID,918.628,VALID,0,VALID,88.5762,VALID,420.921,VALID,23.1911,VALID,190,VALID,1.17525,
2007-10-12, 09:02:00,VALID,918.626,VALID,0,VALID,87.8246,VALID,409.017,VALID,23.2661,VALID,191,VALID,2.27653,
2007-10-12, 09:03:00,VALID,918.638,VALID,0,VALID,86.6001,VALID,417.508,VALID,23.2691,VALID,199,VALID,2.51435,
2007-10-12, 09:04:00,VALID,918.649,VALID,0,VALID,86.361,VALID,418.594,VALID,23.2756,VALID,211,VALID,1.91938,
2007-10-12, 09:05:00,VALID,918.648,VALID,0,VALID,87.1939,VALID,430.583,VALID,23.2688,VALID,197,VALID,1.38281,
2007-10-12, 09:06:00,VALID,918.632,VALID,0,VALID,87.1812,VALID,440.228,VALID,23.3086,VALID,182,VALID,2.35584,
2007-10-12, 09:07:00,VALID,918.651,VALID,0,VALID,86.6688,VALID,464.952,VALID,23.342,VALID,180,VALID,2.85212,
2007-10-12, 09:08:00,VALID,918.646,VALID,0,VALID,87.6835,VALID,496.35,VALID,23.4391,VALID,187,VALID,1.44604,
2007-10-12, 09:09:00,VALID,918.649,VALID,0,VALID,85.7977,VALID,519.291,VALID,23.4684,VALID,171,VALID,1.91959,
2007-10-12, 09:10:00,VALID,918.646,VALID,0,VALID,85.8308,VALID,532.009,VALID,23.5824,VALID,184,VALID,1.68415,
2007-10-12, 09:11:00,VALID,918.644,VALID,0,VALID,85.2662,VALID,544.575,VALID,23.7389,VALID,176,VALID,0.964208,
2007-10-12, 09:12:00,VALID,918.65,VALID,0,VALID,85.9439,VALID,569.469,VALID,23.93,VALID,187,VALID,1.17969,
2007-10-12, 09:13:00,VALID,918.649,VALID,0,VALID,82.8603,VALID,595.433,VALID,24.0531,VALID,190,VALID,1.53716,
2007-10-12, 09:14:00,VALID,918.661,VALID,0,VALID,83.5775,VALID,588.98,VALID,24.1996,VALID,188,VALID,1.01695,
2007-10-12, 09:15:00,VALID,918.674,VALID,0,VALID,83.594,VALID,593.48,VALID,24.3491,VALID,177,VALID,0.964367,
2007-10-12, 09:16:00,VALID,918.664,VALID,0,VALID,84.5859,VALID,599.372,VALID,24.4631,VALID,120,VALID,1.01982,
2007-10-12, 09:17:00,VALID,918.655,VALID,0,VALID,84.5464,VALID,618.391,VALID,24.6008,VALID,157,VALID,0.683293,
2007-10-12, 09:18:00,VALID,918.643,VALID,0,VALID,82.6899,VALID,623.774,VALID,24.7532,VALID,210,VALID,1.07031,
2007-10-12, 09:19:00,VALID,918.653,VALID,0,VALID,81.0572,VALID,648.515,VALID,24.8407,VALID,221,VALID,1.07889,
2007-10-12, 09:20:00,VALID,918.649,VALID,0,VALID,80.4214,VALID,683.665,VALID,24.8832,VALID,220,VALID,1.754,
2007-10-12, 09:21:00,VALID,918.623,VALID,0,VALID,81.3852,VALID,686.909,VALID,24.9742,VALID,183,VALID,1.19493,
2007-10-12, 09:22:00,VALID,918.604,VALID,0,VALID,79.048,VALID,559.569,VALID,25.0728,VALID,204,VALID,1.43114,
2007-10-12, 09:23:00,VALID,918.599,VALID,0,VALID,79.3914,VALID,414.57,VALID,25.2164,VALID,211,VALID,1.65316,
2007-10-12, 09:24:00,VALID,918.59,VALID,0,VALID,79.8593,VALID,362.49,VALID,25.3165,VALID,199,VALID,0.918786,
2007-10-12, 09:25:00,VALID,918.58,VALID,0,VALID,79.7118,VALID,330.634,VALID,25.4569,VALID,198,VALID,1.74112,
2007-10-12, 09:26:00,VALID,918.575,VALID,0,VALID,78.6589,VALID,188.114,VALID,25.4696,VALID,189,VALID,1.83825,
2007-10-12, 09:27:00,VALID,918.57,VALID,0,VALID,79.2706,VALID,283.852,VALID,25.4133,VALID,189,VALID,1.79002,
2007-10-12, 09:28:00,VALID,918.553,VALID,0,VALID,78.9832,VALID,504.568,VALID,25.4429,VALID,215,VALID,0.763715,
2007-10-12, 09:29:00,VALID,918.543,VALID,0,VALID,77.8565,VALID,473.086,VALID,25.5758,VALID,212,VALID,1.44102,
2007-10-12, 09:30:00,VALID,918.539,VALID,0,VALID,77.3899,VALID,334.234,VALID,25.6311,VALID,245,VALID,1.2622,
2007-10-12, 09:31:00,VALID,918.548,VALID,0,VALID,77.7001,VALID,278.621,VALID,25.6181,VALID,215,VALID,1.42869,
2007-10-12, 09:32:00,VALID,918.563,VALID,0,VALID,76.9486,VALID,281.338,VALID,25.5758,VALID,217,VALID,1.01198,
2007-10-12, 09:33:00,VALID,918.539,VALID,0,VALID,76.7591,VALID,391.544,VALID,25.5173,VALID,326,VALID,0.613839,
2007-10-12, 09:34:00,VALID,918.541,VALID,0,VALID,77.4178,VALID,400.561,VALID,25.5076,VALID,40,VALID,0.236919,
2007-10-12, 09:35:00,VALID,918.559,VALID,0,VALID,78.0168,VALID,128.851,VALID,25.8105,VALID,63,VALID,0.231445,
2007-10-12, 09:36:00,VALID,918.541,VALID,0,VALID,77.5971,VALID,262.693,VALID,26.2007,VALID,342,VALID,0.581745,
2007-10-12, 09:37:00,VALID,918.546,VALID,0,VALID,75.4468,VALID,465.529,VALID,26.29,VALID,235,VALID,0.838542,
2007-10-12, 09:38:00,VALID,918.529,VALID,0,VALID,75.9669,VALID,473.816,VALID,26.2582,VALID,196,VALID,1.41202,
2007-10-12, 09:39:00,VALID,918.53,VALID,0,VALID,77.0834,VALID,593.497,VALID,26.1213,VALID,199,VALID,1.57355,
2007-10-12, 09:40:00,VALID,918.527,VALID,0,VALID,75.8627,VALID,691.324,VALID,26.0375,VALID,228,VALID,0.657138,
2007-10-12, 09:41:00,VALID,918.514,VALID,0,VALID,75.4621,VALID,887.028,VALID,25.9328,VALID,323,VALID,0.66369,
2007-10-12, 09:42:00,VALID,918.515,VALID,0,VALID,76.9359,VALID,714.774,VALID,25.9045,VALID,343,VALID,0.478161,
2007-10-12, 09:43:00,VALID,918.498,VALID,0,VALID,78.0676,VALID,653.677,VALID,26.0901,VALID,8,VALID,0.495739,
2007-10-12, 09:44:00,VALID,918.497,VALID,0,VALID,78.4288,VALID,810.987,VALID,26.3892,VALID,66,VALID,0.417039,
2007-10-12, 09:45:00,VALID,918.493,VALID,0,VALID,76.0318,VALID,921.686,VALID,26.7733,VALID,65,VALID,0.0944767,
2007-10-12, 09:46:00,VALID,918.473,VALID,0,VALID,75.1887,VALID,734.778,VALID,27.0877,VALID,50,VALID,0.424543,
2007-10-12, 09:47:00,VALID,918.478,VALID,0,VALID,73.6081,VALID,545.017,VALID,27.2568,VALID,129,VALID,0.725654,
2007-10-12, 09:48:00,VALID,918.476,VALID,0,VALID,69.4118,VALID,253.609,VALID,27.2224,VALID,157,VALID,0.840039,
2007-10-12, 09:49:00,VALID,918.458,VALID,0,VALID,71.9881,VALID,171.523,VALID,26.9489,VALID,206,VALID,0.542302,
2007-10-12, 09:50:00,VALID,918.442,VALID,0,VALID,72.5565,VALID,147.003,VALID,26.6981,VALID,292,VALID,0.933036,
2007-10-12, 09:51:00,VALID,918.434,VALID,0,VALID,74.1117,VALID,350.875,VALID,26.4774,VALID,234,VALID,0.438643,
2007-10-12, 09:52:00,VALID,918.433,VALID,0,VALID,75.1633,VALID,266.548,VALID,26.4438,VALID,148,VALID,0.717035,
2007-10-12, 09:53:00,VALID,918.422,VALID,0,VALID,76.8939,VALID,468.62,VALID,26.2289,VALID,93,VALID,1.95406,
2007-10-12, 09:54:00,VALID,918.426,VALID,0,VALID,79.0404,VALID,533.181,VALID,25.6308,VALID,65,VALID,2.02809,
2007-10-12, 09:55:00,VALID,918.431,VALID,0,VALID,80.7151,VALID,781.763,VALID,25.439,VALID,58,VALID,1.4256,
2007-10-12, 09:56:00,VALID,918.423,VALID,0,VALID,80.3908,VALID,476.907,VALID,25.3714,VALID,36,VALID,0.917151,
2007-10-12, 09:57:00,VALID,918.395,VALID,0,VALID,81.4285,VALID,431.789,VALID,25.4929,VALID,76,VALID,1.32231,
2007-10-12, 09:58:00,VALID,918.408,VALID,0,VALID,82.3199,VALID,374.241,VALID,25.6753,VALID,346,VALID,0.412427,
2007-10-12, 09:59:00,VALID,918.401,VALID,0,VALID,80.8486,VALID,346.477,VALID,25.8184,VALID,235,VALID,0.54375,
2007-10-12, 10:00:00,VALID,918.388,VALID,0,VALID,79.3494,VALID,326.49,VALID,25.8151,VALID,293,VALID,0.797828,
2007-10-12, 10:01:00,VALID,918.386,VALID,0,VALID,80.9656,VALID,333.724,VALID,25.6197,VALID,332,VALID,0.498547,
2007-10-12, 10:02:00,VALID,918.396,VALID,0,VALID,81.4526,VALID,438.462,VALID,25.542,VALID,353,VALID,0.365699,
2007-10-12, 10:03:00,VALID,918.387,VALID,0,VALID,82.8501,VALID,642.996,VALID,25.6331,VALID,82,VALID,0.261433,
2007-10-12, 10:04:00,VALID,918.375,VALID,0,VALID,82.7751,VALID,683.988,VALID,25.9256,VALID,113,VALID,0.123224,
2007-10-12, 10:05:00,VALID,918.378,VALID,0,VALID,80.5587,VALID,651.843,VALID,26.1536,VALID,44,VALID,0.30888,
2007-10-12, 10:06:00,VALID,918.376,VALID,0,VALID,80.4544,VALID,538.955,VALID,26.2475,VALID,321,VALID,0.0397892,
2007-10-12, 10:07:00,VALID,918.374,VALID,0,VALID,79.4982,VALID,369.656,VALID,26.439,VALID,315,VALID,0.103566,
2007-10-12, 10:08:00,VALID,918.372,VALID,0,VALID,77.9824,VALID,339.702,VALID,26.5811,VALID,312,VALID,0.551562,
2007-10-12, 10:09:00,VALID,918.376,VALID,0,VALID,77.7675,VALID,344.337,VALID,26.4312,VALID,304,VALID,0.634588,
2007-10-12, 10:10:00,VALID,918.374,VALID,0,VALID,78.603,VALID,352.284,VALID,26.2592,VALID,321,VALID,0.56593,
2007-10-12, 10:11:00,VALID,918.364,VALID,0,VALID,79.549,VALID,370.878,VALID,26.135,VALID,299,VALID,0.302202,
2007-10-12, 10:12:00,VALID,918.36,VALID,0,VALID,77.7217,VALID,375.276,VALID,26.0605,VALID,338,VALID,0.863542,
2007-10-12, 10:13:00,VALID,918.354,VALID,0,VALID,76.6561,VALID,378.944,VALID,25.8304,VALID,352,VALID,0.648624,
2007-10-12, 10:14:00,VALID,918.343,VALID,0,VALID,77.8985,VALID,382.171,VALID,25.6678,VALID,358,VALID,0.848437,
2007-10-12, 10:15:00,VALID,918.33,VALID,0,VALID,78.8026,VALID,476.635,VALID,25.4819,VALID,6,VALID,1.12682,
2007-10-12, 10:16:00,VALID,918.319,VALID,0,VALID,78.6564,VALID,683.801,VALID,25.3815,VALID,351,VALID,0.877604,
2007-10-12, 10:17:00,VALID,918.316,VALID,0,VALID,80.6909,VALID,741.994,VALID,25.4884,VALID,352,VALID,0.294588,
2007-10-12, 10:18:00,VALID,918.314,VALID,0,VALID,79.5579,VALID,556.156,VALID,25.7062,VALID,341,VALID,0.767756,
2007-10-12, 10:19:00,VALID,918.284,VALID,0,VALID,78.383,VALID,763.305,VALID,25.7842,VALID,314,VALID,0.708008,
2007-10-12, 10:20:00,VALID,918.281,VALID,0,VALID,78.5737,VALID,1016.73,VALID,25.9334,VALID,337,VALID,0.622396,
2007-10-12, 10:21:00,VALID,918.271,VALID,0,VALID,77.9316,VALID,483.886,VALID,26.0742,VALID,329,VALID,0.52846,
2007-10-12, 10:22:00,VALID,918.263,VALID,0,VALID,78.6348,VALID,353.982,VALID,26.1867,VALID,309,VALID,0.644531,
2007-10-12, 10:23:00,VALID,918.25,VALID,0,VALID,79.2973,VALID,348.175,VALID,26.2153,VALID,43,VALID,0.592297,
2007-10-12, 10:24:00,VALID,918.263,VALID,0,VALID,78.5852,VALID,379.369,VALID,26.2264,VALID,30,VALID,0.364702,
2007-10-12, 10:25:00,VALID,918.248,VALID,0,VALID,78.8064,VALID,721.651,VALID,26.3623,VALID,89,VALID,0.745206,
2007-10-12, 10:26:00,VALID,918.245,VALID,0,VALID,78.3016,VALID,463.458,VALID,26.4556,VALID,112,VALID,0.360547,
2007-10-12, 10:27:00,VALID,918.249,VALID,0,VALID,77.5018,VALID,541.366,VALID,26.561,VALID,294,VALID,0.404848,
2007-10-12, 10:28:00,VALID,918.245,VALID,0,VALID,77.1215,VALID,418,VALID,26.5975,VALID,300,VALID,0.679506,
2007-10-12, 10:29:00,VALID,918.238,VALID,0,VALID,77.6836,VALID,542.419,VALID,26.4895,VALID,303,VALID,0.533558,
2007-10-12, 10:30:00,VALID,918.245,VALID,0,VALID,77.5704,VALID,965.649,VALID,26.5057,VALID,317,VALID,1.15885,
2007-10-12, 10:31:00,VALID,918.246,VALID,0,VALID,75.6668,VALID,513.959,VALID,26.4219,VALID,276,VALID,0.955256,
2007-10-12, 10:32:00,VALID,918.246,VALID,0,VALID,75.3032,VALID,133.894,VALID,26.2586,VALID,326,VALID,1.32217,
2007-10-12, 10:33:00,VALID,918.247,VALID,0,VALID,76.8545,VALID,138.547,VALID,26.031,VALID,326,VALID,0.30522,
2007-10-12, 10:34:00,VALID,918.259,VALID,0,VALID,78.5305,VALID,107.591,VALID,26.0544,VALID,347,VALID,0.0982422,
2007-10-12, 10:35:00,VALID,918.261,VALID,0,VALID,79.8758,VALID,161.25,VALID,26.2723,VALID,23,VALID,0.494284,